When you browse on this site, cookies collect data to enhance your experience and personalize the content and advertising you see.
Visit our Privacy Policy to learn more. By continuing to use the site, you agree to this use of cookies and data.
  • In United Kingdom
  • List of Countries
  • For 7 days
  • Water Temperature
  • Weather Map
  • Weather Widgets
  • user-avatar
    Login

    Hourly Weather CampiaTurzii

    Today, 15 September, Sunday

    Time Temperature Precipitation Wind Pressure Humidity
    00:00 +15°C° 0 mm 2 mps 740 mmHg 61%
    01:00 +15°C° 0 mm 1 mps 740 mmHg 62%
    02:00 +14°C° 0 mm 1 mps 740 mmHg 64%
    03:00 +13°C° 0 mm 1 mps 740 mmHg 68%
    04:00 +12°C° 0 mm 1 mps 740 mmHg 73%
    05:00 +11°C° 0 mm 1 mps 740 mmHg 77%
    06:00 +13°C° 0 mm 1 mps 740 mmHg 72%
    07:00 +14°C° 0 mm 1 mps 740 mmHg 68%
    08:00 +15°C° 0 mm 1 mps 740 mmHg 63%
    09:00 +19°C° 0 mm 1 mps 740 mmHg 56%
    10:00 +21°C° 0 mm 1 mps 740 mmHg 49%
    11:00 +23°C° 0 mm 1 mps 740 mmHg 42%
    12:00 +24°C° 0 mm 1 mps 740 mmHg 39%
    13:00 +25°C° 0 mm 2 mps 739 mmHg 37%
    14:00 +26°C° 0 mm 2 mps 739 mmHg 34%
    15:00 +26°C° 0 mm 3 mps 739 mmHg 34%
    16:00 +26°C° 0 mm 3 mps 738 mmHg 35%
    17:00 +25°C° 0 mm 3 mps 737 mmHg 36%
    18:00 +22°C° 0 mm 3 mps 737 mmHg 41%
    19:00 +19°C° 0 mm 2 mps 737 mmHg 45%
    20:00 +18°C° 0 mm 1 mps 737 mmHg 50%
    21:00 +16°C° 0 mm 1 mps 737 mmHg 53%
    22:00 +15°C° 0 mm 1 mps 737 mmHg 55%
    23:00 +14°C° 0 mm 1 mps 736 mmHg 57%

    Tomorrow, 16 September, Monday

    Time Temperature Precipitation Wind Pressure Humidity
    00:00 +13°C° 0 mm 1 mps 736 mmHg 59%
    01:00 +12°C° 0 mm 0 mps 736 mmHg 60%
    02:00 +11°C° 0 mm 0 mps 736 mmHg 61%
    03:00 +11°C° 0 mm 0 mps 736 mmHg 63%
    04:00 +11°C° 0 mm 0 mps 736 mmHg 64%
    05:00 +10°C° 0 mm 0 mps 735 mmHg 65%
    06:00 +12°C° 0 mm 0 mps 735 mmHg 60%
    07:00 +14°C° 0 mm 0 mps 735 mmHg 54%
    08:00 +16°C° 0 mm 0 mps 735 mmHg 49%
    09:00 +18°C° 0 mm 0 mps 735 mmHg 43%
    10:00 +21°C° 0 mm 0 mps 735 mmHg 38%
    11:00 +25°C° 0 mm 1 mps 735 mmHg 33%
    12:00 +26°C° 0 mm 1 mps 734 mmHg 32%
    13:00 +27°C° 0 mm 2 mps 734 mmHg 31%
    14:00 +28°C° 0 mm 2 mps 733 mmHg 30%
    15:00 +28°C° 0 mm 2 mps 733 mmHg 31%
    16:00 +28°C° 0 mm 2 mps 733 mmHg 33%
    17:00 +28°C° 0 mm 2 mps 732 mmHg 34%
    18:00 +25°C° 0 mm 2 mps 732 mmHg 41%
    19:00 +22°C° 0 mm 1 mps 732 mmHg 48%
    20:00 +20°C° 0 mm 1 mps 732 mmHg 56%
    21:00 +19°C° 0 mm 1 mps 732 mmHg 57%
    22:00 +19°C° 0 mm 1 mps 732 mmHg 59%
    23:00 +18°C° 0 mm 1 mps 731 mmHg 61%

    Day after tomorrow, 17 September, Tuesday

    Time Temperature Precipitation Wind Pressure Humidity
    00:00 +18°C° 0 mm 1 mps 731 mmHg 62%
    01:00 +16°C° 0 mm 1 mps 731 mmHg 64%
    02:00 +16°C° 0 mm 1 mps 731 mmHg 66%
    03:00 +16°C° 0 mm 1 mps 731 mmHg 65%
    04:00 +16°C° 0 mm 1 mps 730 mmHg 65%
    05:00 +18°C° 0 mm 1 mps 730 mmHg 65%
    06:00 +19°C° 0.2 mm 1 mps 730 mmHg 65%
    07:00 +20°C° 0.2 mm 1 mps 730 mmHg 65%
    08:00 +20°C° 0.2 mm 1 mps 730 mmHg 65%
    09:00 +21°C° 0.1 mm 2 mps 730 mmHg 59%
    10:00 +24°C° 0.1 mm 2 mps 730 mmHg 52%
    11:00 +26°C° 0.1 mm 3 mps 730 mmHg 46%
    12:00 +27°C° 0 mm 4 mps 730 mmHg 42%
    13:00 +28°C° 0 mm 5 mps 730 mmHg 38%
    14:00 +29°C° 0 mm 6 mps 729 mmHg 34%
    15:00 +28°C° 0 mm 6 mps 729 mmHg 36%
    16:00 +27°C° 0 mm 6 mps 729 mmHg 37%
    17:00 +26°C° 0 mm 7 mps 729 mmHg 39%
    18:00 +23°C° 0 mm 6 mps 729 mmHg 44%
    19:00 +21°C° 0 mm 5 mps 729 mmHg 50%
    20:00 +20°C° 0 mm 4 mps 729 mmHg 56%
    21:00 +18°C° 0 mm 3 mps 729 mmHg 59%
    22:00 +17°C° 0 mm 3 mps 730 mmHg 63%
    23:00 +16°C° 0 mm 3 mps 730 mmHg 66%

    18 September, Wednesday

    Time Temperature Precipitation Wind Pressure Humidity
    00:00 +15°C° 0 mm 2 mps 730 mmHg 67%
    01:00 +14°C° 0 mm 2 mps 730 mmHg 68%
    02:00 +13°C° 0 mm 2 mps 730 mmHg 69%
    03:00 +13°C° 0 mm 2 mps 730 mmHg 67%
    04:00 +13°C° 0 mm 2 mps 730 mmHg 66%
    05:00 +13°C° 0 mm 2 mps 731 mmHg 64%
    06:00 +12°C° 0 mm 3 mps 731 mmHg 61%
    07:00 +12°C° 0 mm 3 mps 731 mmHg 57%
    08:00 +12°C° 0 mm 4 mps 732 mmHg 54%
    09:00 +14°C° 0 mm 4 mps 732 mmHg 49%
    10:00 +15°C° 0 mm 4 mps 733 mmHg 45%
    11:00 +17°C° 0 mm 4 mps 733 mmHg 41%
    12:00 +18°C° 0 mm 4 mps 733 mmHg 38%
    13:00 +19°C° 0 mm 4 mps 733 mmHg 36%
    14:00 +20°C° 0 mm 5 mps 733 mmHg 34%
    15:00 +19°C° 0 mm 4 mps 733 mmHg 34%
    16:00 +19°C° 0 mm 4 mps 733 mmHg 34%
    17:00 +18°C° 0 mm 4 mps 733 mmHg 34%
    18:00 +16°C° 0 mm 3 mps 733 mmHg 40%
    19:00 +14°C° 0 mm 2 mps 733 mmHg 45%
    20:00 +11°C° 0 mm 1 mps 734 mmHg 50%
    21:00 +10°C° 0 mm 1 mps 734 mmHg 52%
    22:00 +10°C° 0 mm 1 mps 734 mmHg 54%
    23:00 +9°C° 0 mm 1 mps 734 mmHg 57%

    19 September, Thursday

    Time Temperature Precipitation Wind Pressure Humidity
    00:00 +8°C° 0 mm 1 mps 734 mmHg 58%
    01:00 +7°C° 0 mm 0 mps 734 mmHg 59%
    02:00 +6°C° 0 mm 0 mps 734 mmHg 60%
    03:00 +6°C° 0 mm 0 mps 734 mmHg 61%
    04:00 +6°C° 0 mm 0 mps 734 mmHg 62%
    05:00 +5°C° 0 mm 0 mps 734 mmHg 63%
    06:00 +7°C° 0 mm 0 mps 734 mmHg 58%
    07:00 +8°C° 0 mm 0 mps 734 mmHg 53%
    08:00 +10°C° 0 mm 0 mps 734 mmHg 48%
    09:00 +13°C° 0 mm 1 mps 734 mmHg 42%
    10:00 +15°C° 0 mm 1 mps 734 mmHg 37%
    11:00 +18°C° 0 mm 1 mps 734 mmHg 32%
    12:00 +18°C° 0 mm 2 mps 734 mmHg 30%
    13:00 +18°C° 0 mm 3 mps 733 mmHg 29%
    14:00 +19°C° 0 mm 4 mps 733 mmHg 28%
    15:00 +18°C° 0 mm 4 mps 733 mmHg 29%
    16:00 +18°C° 0 mm 4 mps 733 mmHg 30%
    17:00 +16°C° 0 mm 5 mps 733 mmHg 32%
    18:00 +14°C° 0 mm 4 mps 733 mmHg 35%
    19:00 +12°C° 0 mm 3 mps 733 mmHg 38%
    20:00 +10°C° 0 mm 2 mps 734 mmHg 42%
    21:00 +9°C° 0 mm 2 mps 734 mmHg 44%
    22:00 +8°C° 0 mm 2 mps 734 mmHg 46%
    23:00 +7°C° 0 mm 2 mps 735 mmHg 49%

    20 September, Friday

    Time Temperature Precipitation Wind Pressure Humidity
    00:00 +7°C° 0 mm 2 mps 735 mmHg 52%
    01:00 +7°C° 0 mm 1 mps 735 mmHg 54%
    02:00 +7°C° 0 mm 1 mps 735 mmHg 57%
    03:00 +6°C° 0 mm 1 mps 735 mmHg 59%
    04:00 +6°C° 0 mm 1 mps 735 mmHg 61%
    05:00 +6°C° 0 mm 1 mps 735 mmHg 63%
    06:00 +7°C° 0 mm 1 mps 735 mmHg 60%
    07:00 +8°C° 0 mm 1 mps 735 mmHg 57%
    08:00 +9°C° 0 mm 1 mps 735 mmHg 53%
    09:00 +10°C° 0 mm 2 mps 735 mmHg 48%
    10:00 +12°C° 0 mm 3 mps 736 mmHg 44%
    11:00 +14°C° 0 mm 4 mps 736 mmHg 39%
    12:00 +14°C° 0 mm 5 mps 736 mmHg 37%
    13:00 +15°C° 0 mm 5 mps 735 mmHg 35%
    14:00 +16°C° 0 mm 6 mps 735 mmHg 33%
    15:00 +15°C° 0 mm 6 mps 735 mmHg 35%
    16:00 +14°C° 0 mm 6 mps 735 mmHg 37%
    17:00 +14°C° 0 mm 6 mps 736 mmHg 38%
    18:00 +10°C° 0 mm 5 mps 736 mmHg 47%
    19:00 +8°C° 0 mm 4 mps 737 mmHg 55%
    20:00 +7°C° 0 mm 3 mps 737 mmHg 64%
    21:00 +5°C° 0 mm 3 mps 738 mmHg 67%
    22:00 +5°C° 0 mm 2 mps 738 mmHg 70%
    23:00 +4°C° 0 mm 2 mps 738 mmHg 73%
    Show more